10.05.2024;15:00;13
10.05.2024;14:00;16
10.05.2024;13:00;18
10.05.2024;12:00;8
10.05.2024;11:00;2
10.05.2024;10:00;2
10.05.2024;09:00;10
10.05.2024;08:00;11
10.05.2024;07:00;16
10.05.2024;06:00;18
10.05.2024;05:00;17
10.05.2024;04:00;16
10.05.2024;03:00;13
10.05.2024;02:00;19
10.05.2024;01:00;20
09.05.2024;24:00;22
09.05.2024;23:00;30
09.05.2024;22:00;25
09.05.2024;21:00;16
09.05.2024;20:00;22
09.05.2024;19:00;21
09.05.2024;18:00;11
09.05.2024;17:00;8
09.05.2024;16:00;5
09.05.2024;15:00;13
09.05.2024;14:00;17
09.05.2024;13:00;10
09.05.2024;12:00;4
09.05.2024;11:00;2
09.05.2024;10:00;2
09.05.2024;09:00;2
09.05.2024;08:00;9
09.05.2024;07:00;14
09.05.2024;06:00;15
09.05.2024;05:00;16
09.05.2024;04:00;17
09.05.2024;03:00;22
09.05.2024;02:00;20
09.05.2024;01:00;23
08.05.2024;24:00;27
08.05.2024;23:00;32
08.05.2024;22:00;34
08.05.2024;21:00;22
08.05.2024;20:00;18
08.05.2024;19:00;17
08.05.2024;18:00;12
08.05.2024;17:00;16
08.05.2024;16:00;9
08.05.2024;15:00;10
08.05.2024;14:00;12
08.05.2024;13:00;4
08.05.2024;12:00;2
08.05.2024;11:00;9
08.05.2024;10:00;11
08.05.2024;09:00;16
08.05.2024;08:00;20
08.05.2024;07:00;17
08.05.2024;06:00;15
08.05.2024;05:00;11
08.05.2024;04:00;7
08.05.2024;03:00;6
08.05.2024;02:00;11
08.05.2024;01:00;14
07.05.2024;24:00;16
07.05.2024;23:00;16
07.05.2024;22:00;15
07.05.2024;21:00;17
07.05.2024;20:00;18
07.05.2024;19:00;11
07.05.2024;18:00;8
07.05.2024;17:00;8
07.05.2024;16:00;2
07.05.2024;15:00;3
07.05.2024;14:00;15
07.05.2024;13:00;8
07.05.2024;12:00;3
07.05.2024;11:00;2
07.05.2024;10:00;4
07.05.2024;09:00;14
07.05.2024;08:00;15
07.05.2024;07:00;7
07.05.2024;06:00;8
07.05.2024;05:00;6
07.05.2024;04:00;2
07.05.2024;03:00;2
07.05.2024;02:00;2
07.05.2024;01:00;2
06.05.2024;24:00;6
06.05.2024;23:00;8
06.05.2024;22:00;3
06.05.2024;21:00;6
06.05.2024;20:00;28
06.05.2024;19:00;20
06.05.2024;18:00;16
06.05.2024;17:00;6
06.05.2024;16:00;2
06.05.2024;15:00;9
06.05.2024;14:00;11
06.05.2024;13:00;2
06.05.2024;12:00;2
06.05.2024;11:00;10
06.05.2024;10:00;7
06.05.2024;09:00;8
06.05.2024;08:00;8
06.05.2024;07:00;9
06.05.2024;06:00;7
06.05.2024;05:00;2
06.05.2024;04:00;2
06.05.2024;03:00;4
06.05.2024;02:00;9
06.05.2024;01:00;9
05.05.2024;24:00;17
05.05.2024;23:00;15
05.05.2024;22:00;13
05.05.2024;21:00;9
05.05.2024;20:00;2
05.05.2024;19:00;2
05.05.2024;18:00;2
05.05.2024;17:00;13
05.05.2024;16:00;12
05.05.2024;15:00;3
05.05.2024;14:00;2
05.05.2024;13:00;2
05.05.2024;12:00;2
05.05.2024;11:00;2
05.05.2024;10:00;2
05.05.2024;09:00;9
05.05.2024;08:00;11
05.05.2024;07:00;10
05.05.2024;06:00;9
05.05.2024;05:00;12
05.05.2024;04:00;8
05.05.2024;03:00;7
05.05.2024;02:00;15
05.05.2024;01:00;13
